EHI
0 0 0 0 0 0 0 0 0 0 0 0 1 1 0 0 0 0 0 0 0 0 0 0 0 0 0 0 0 0 0 0 0 0 0 0 0 0
0 0 0 0 0 0 0 0 0 0 0 0 1 1 0 0 0 0 0 0 0 0 0 0 0 0 0 0 0 0 0 0 0 0 0 0 0 0
0 0 0 0 0 0 0 0 0 0 0 0 1 1 0 0 0 0 0 0 0 0 0 0 0 0 0 0 0 0 0 0 0 0 0 0 0 0
0 0 0 0 0 0 0 0 0 0 0 0 0 0 0 0 0 0 0 0 0 0 0 0 0 0 0 0 0 0 0 0 0 0 0 0 0 0
0 0 0 0 0 0 0 0 0 0 0 0 0 0 0 0 0 0 0 0 0 0 0 0 0 0 0 0 0 0 0 0 0 0 0 0 0 0
0 0 0 0 0 0 0 0 0 0 0 0 0 0 0 0 0 0 0 0 0 0 0 0 0 0 0 0 0 0 0 0 0 0 0 0 0 0
0 0 0 0 0 0 0 0 0 0 0 0 0 0 0 0 0 0 0 0 0 0 0 0 0 0 0 0 0 0 0 0 0 0 0 0 0 0
0 0 0 0 0 0 0 0 0 0 0 0 0 0 0 0 0 0 0 0 0 0 0 0 0 0 0 0 0 0 0 0 0 0 0 0 0 0
0 0 0 0 0 0 0 0 0 0 0 0 0 0 0 0 0 0 0 0 0 0 0 0 0 0 0 0 0 0 0 0 0 0 0 0 0 0
0 0 0 0 0 0 0 0 0 0 0 0 0 0 0 0 0 0 0 0 0 0 0 0 0 0 0 0 0 0 0 0 0 0 0 0 0 0
0 0 0 0 0 0 0 0 0 0 0 0 0 0 0 0 0 0 0 0 0 0 0 0 0 0 0 0 0 0 0 0 0 0 0 0 0 0
0 0 0 0 0 0 0 0 0 0 0 0 0 0 0 0 0 0 0 0 0 0 0 0 0 0 0 0 0 0 0 0 0 0 0 0 0 0
0 0 0 0 0 0 0 0 0 0 0 0 0 0 0 0 0 0 0 0 0 0 0 0 0 0 0 0 0 0 0 0 0 0 0 0 0 0
0 0 0 0 0 0 0 0 0 0 0 0 0 0 0 0 0 0 0 0 0 0 0 0 0 0 0 0 0 0 0 0 0 0 0 0 0 0
0 0 0 0 0 0 0 0 0 0 0 0 0 0 0 0 0 0 0 0 0 0 0 0 0 0 0 0 0 0 0 0 0 0 0 0 0 0
0 0 0 0 0 0 0 0 0 0 0 0 0 0 0 0 0 0 0 0 0 0 0 0 0 0 0 0 0 0 0 0 0 0 0 0 0 0
0 0 0 0 0 0 0 0 0 0 0 0 0 0 0 0 0 0 0 0 0 0 0 0 0 0 0 0 0 0 0 0 0 0 0 0 0 0
0 0 0 0 0 0 0 0 0 0 0 0 0 0 0 0 0 0 0 0 0 0 0 0 0 0 0 0 0 0 0 0 0 0 0 0 0 0
0 0 0 0 0 0 0 0 0 0 0 0 0 0 0 0 0 0 0 0 0 0 0 0 0 0 0 0 0 0 0 0 0 0 0 0 0 0
0 0 0 0 0 0 0 0 0 0 0 0 0 0 0 0 0 0 0 0 0 0 0 0 0 0 0 0 0 0 0 0 0 0 0 0 0 0
0 0 0 0 0 0 0 0 0 0 0 0 0 0 0 0 0 0 0 0 0 0 0 0 0 0 0 0 0 0 0 0 0 0 0 0 0 0
0 0 0 0 0 0 0 0 0 0 0 0 0 0 0 0 0 0 0 0 0 0 0 0 0 0 0 0 0 0 0 0 0 0 0 0 0 0
0 0 0 0 0 0 0 0 0 0 0 0 0 0 0 0 0 0 0 0 0 0 0 0 0 0 0 0 0 0 0 0 0 0 0 0 0 0
Wind_Speed
2 2 2 1 2 2 2 2 2 2 2 2 1 2 1 1 2 4 4 6 7 8 8 8 8 8 8 9 9 9 9 9 10 11 11 11 11 11
1 2 2 2 1 2 2 2 3 2 1 0 0 1 1 2 2 3 3 4 7 8 8 8 8 8 8 8 9 9 8 9 9 10 11 11 11 12
1 1 2 2 2 2 2 2 2 2 2 1 1 1 2 2 2 2 3 4 4 7 7 8 8 8 9 9 9 9 9 9 9 10 10 11 12 12
0 1 1 1 2 2 2 2 2 2 2 2 2 1 1 1 2 2 2 2 3 5 7 7 8 8 8 8 9 9 10 10 10 10 10 11 12 12
0 1 1 2 2 2 2 2 2 2 2 2 2 1 1 1 2 2 3 2 3 3 6 8 8 8 8 9 9 9 9 9 10 10 10 11 11 12
0 1 1 1 2 2 2 3 2 3 3 3 3 2 2 2 2 2 2 2 3 3 3 3 6 8 9 9 10 10 10 10 10 10 10 10 10 11
0 0 1 1 3 3 3 2 3 3 3 3 3 3 2 2 2 2 3 3 3 3 2 3 4 5 6 9 11 11 10 10 11 11 11 11 11 11
1 0 0 2 1 2 3 3 4 4 3 3 3 4 4 3 2 3 3 3 3 2 3 4 4 5 5 5 6 9 11 11 11 11 12 11 12 12
1 0 0 0 2 2 4 6 5 6 6 6 5 5 4 3 4 4 4 4 4 2 3 4 4 5 4 4 7 9 10 11 11 12 12 12 12 12
1 1 1 1 1 2 3 3 3 3 4 6 5 5 4 4 4 5 5 4 4 4 4 4 4 4 4 4 7 10 10 11 11 12 12 12 12 13
1 1 2 1 2 3 3 3 3 2 3 4 5 5 5 5 5 4 5 4 4 4 3 4 3 4 4 5 4 8 9 10 10 11 12 12 12 12
1 1 1 2 2 3 4 3 3 3 3 3 5 6 6 6 8 8 6 5 4 4 3 3 3 3 3 3 3 4 6 9 11 11 11 12 11 9
2 1 1 1 2 3 6 4 3 5 4 4 4 3 3 3 4 5 5 5 6 5 3 3 4 4 4 4 4 4 4 4 5 7 10 12 12 10
3 2 1 2 2 3 3 3 4 5 4 3 3 3 3 3 3 4 5 5 6 7 6 5 4 5 5 5 5 4 4 5 5 5 5 7 10 12
2 2 3 2 4 3 2 3 4 4 3 3 3 3 3 3 3 3 4 4 5 6 6 7 6 5 6 6 5 5 5 5 5 5 5 5 6 6
3 2 3 3 3 2 2 2 2 2 3 3 3 3 3 3 3 3 3 3 4 4 5 6 7 7 6 7 6 7 6 5 4 5 5 5 6 6
2 1 1 1 1 1 1 2 2 2 2 3 3 3 3 3 3 3 3 4 4 5 4 4 4 5 7 7 7 7 7 6 6 6 6 6 6 7
1 0 1 1 2 3 3 3 2 3 3 4 4 3 4 4 4 3 3 4 5 5 4 4 3 4 5 6 8 8 7 7 6 6 6 7 7 6
0 1 2 2 2 3 3 3 3 4 4 4 4 4 4 4 4 4 4 4 5 5 5 4 4 4 6 7 5 7 7 6 6 6 6 7 8 7
3 2 3 3 3 3 3 3 3 3 3 4 4 4 4 4 5 5 5 5 6 6 6 5 4 5 6 7 7 6 8 8 6 7 6 6 6 6
3 3 3 3 3 3 3 3 4 4 4 4 4 5 5 5 5 5 6 6 7 6 7 6 5 6 7 6 7 7 6 7 8 7 7 6 6 6
3 3 3 4 4 4 3 3 3 4 5 5 5 5 5 5 6 7 6 6 6 7 8 7 6 6 6 7 9 10 9 7 6 9 10 9 7 7
3 3 3 3 3 3 4 4 5 4 4 5 5 6 6 6 6 6 7 7 7 8 8 8 6 6 7 7 8 9 11 10 7 6 7 9 12 13
Wind_Direction
257 232 227 217 235 238 246 248 258 252 216 166 167 185 224 229 163 226 221 181 196 206 210 213 214 215 216 215 216 219 221 221 221 220 222 222 221 222
264 252 233 227 227 226 234 239 254 265 265 263 226 198 227 235 199 242 238 175 201 205 209 212 212 214 216 215 213 213 216 219 219 220 220 222 223 223
234 245 246 255 238 225 226 226 239 251 242 266 286 244 227 235 219 240 236 229 207 190 201 209 211 214 217 218 216 214 213 215 219 220 222 222 223 223
235 246 247 229 247 246 235 228 227 238 235 247 255 263 266 248 245 246 246 237 238 181 195 209 212 213 216 216 214 214 214 217 219 220 221 220 221 220
282 250 253 228 229 224 230 230 230 231 236 244 263 286 269 250 250 246 238 238 245 200 197 208 213 215 216 216 216 217 218 219 219 219 220 220 221 221
310 280 271 259 252 240 234 227 227 229 227 229 237 243 250 254 252 254 253 236 239 234 220 219 208 212 218 218 218 219 219 219 219 219 219 218 219 223
32 347 356 355 352 321 295 263 237 233 233 233 236 237 237 239 253 268 269 268 255 237 241 235 221 224 216 214 217 218 220 221 220 219 218 218 220 222
72 46 153 197 196 234 282 305 301 270 253 245 243 243 250 251 257 258 266 265 262 221 250 253 243 242 238 234 207 207 218 222 223 221 220 222 224 226
354 16 13 30 251 237 209 215 231 244 262 275 267 261 260 256 257 255 250 258 269 267 263 257 242 246 245 234 205 212 220 224 225 225 227 226 226 227
284 284 276 293 326 298 264 253 257 238 238 249 264 273 276 271 259 263 269 264 272 255 239 258 257 259 259 247 209 213 220 226 228 229 229 229 228 228
276 308 304 299 53 311 268 263 271 256 211 245 283 288 296 274 261 252 245 245 261 256 235 249 262 273 268 255 225 210 220 225 228 230 232 231 229 230
243 213 97 336 2 301 274 270 274 289 284 247 238 231 240 229 220 238 246 247 258 257 218 233 260 276 271 247 238 230 226 224 225 230 232 232 227 232
286 280 60 88 314 295 287 290 314 306 284 277 276 271 258 249 235 239 241 247 254 257 240 233 252 253 257 271 264 253 249 249 237 233 227 226 223 226
291 302 29 66 302 286 284 330 310 283 269 268 272 277 279 277 271 270 264 255 255 264 261 250 252 254 259 266 268 262 254 253 251 251 246 221 220 225
294 17 2 323 278 242 216 277 271 264 274 276 283 293 302 302 298 290 282 274 272 264 253 248 247 252 255 260 265 265 269 262 248 248 249 242 237 227
242 182 202 231 250 287 273 245 270 307 301 293 298 298 294 286 280 284 286 287 280 273 257 248 245 247 254 260 263 266 262 258 252 250 251 249 246 240
306 260 270 279 291 323 331 338 326 317 301 300 299 299 298 293 291 291 287 286 283 285 284 275 263 258 259 264 264 262 261 260 255 252 252 254 248 242
270 213 23 7 356 353 351 350 346 343 335 326 319 316 310 308 306 300 289 284 285 286 286 287 282 276 271 256 239 257 261 261 260 251 247 254 258 250
75 42 28 18 4 357 354 350 346 344 336 327 323 322 318 312 307 302 298 293 287 286 285 280 272 270 274 278 261 228 258 269 266 258 250 253 261 263
50 38 28 19 12 4 357 353 349 345 338 335 333 330 325 317 313 309 304 304 301 295 290 283 276 273 276 284 289 274 241 257 263 263 262 261 264 272
55 47 35 24 15 11 3 357 353 350 347 340 338 333 328 322 317 313 309 310 300 296 296 295 298 290 285 281 275 273 267 239 250 265 271 267 266 263
50 45 38 27 19 14 6 358 354 355 351 344 342 335 329 324 320 317 315 312 307 303 301 300 302 293 280 274 279 285 288 282 256 248 254 255 259 261
47 38 34 25 16 6 359 355 354 353 350 342 337 333 330 325 320 315 314 312 311 309 307 304 300 293 286 280 281 283 284 283 280 270 262 248 243 252